Regional Weather Roundup
Issued by NWS

Home | Current Version | Previous Version | Text Only | Print | Product List | Glossary Off
Versions: 1 2 3 4 5 6 7 8 9 10 11 12 13 14 15 16 17 18 19 20 21 22 23 24 25 26 27 28 29 30 31 32 33 34 35 36 37 38 39 40 41 42 43 44 45 46 47 48 49 50

000
ASUS43 KFSD 012202
RWRSD

WEATHER ROUNDUP FOR SOUTH DAKOTA
NATIONAL WEATHER SERVICE SIOUX FALLS SD
500 PM CDT WED JUL 01 2015

NOTE: "FAIR" INDICATES FEW OR NO CLOUDS BELOW 12,000 FEET WITH NO
SIGNIFICANT WEATHER AND/OR OBSTRUCTIONS TO VISIBILITY.


SDZ001>005-009-010-012>017-012300-
NORTHWEST AND NORTH CENTRAL SOUTH DAKOTA

CITY           SKY/WX    TMP DP  RH WIND       PRES   REMARKS
BUFFALO          N/A     80  62  54 VRB3      29.94F
FAITH            N/A     77  61  57 NE7       29.97F
MOBRIDGE       CLOUDY    80  66  62 CALM      29.91F
$$

SDZ012>016-024>037-041>051-057-063-072>074-012300-
SOUTHWEST AND SOUTH CENTRAL SOUTH DAKOTA

CITY           SKY/WX    TMP DP  RH WIND       PRES   REMARKS
RAPID CTY ARPT SUNNY     83  65  54 N20G28    29.97F
PIERRE         PTSUNNY   81  65  58 NE6       29.89F
CUSTER         PTSUNNY   74  61  63 SE8       30.14S HAZE
ELLSWORTH AFB  SUNNY     83  65  53 N13       29.99F SMOKE
PHILIP         MOSUNNY   81  65  58 N13       29.94F
PINE RIDGE     SUNNY     85  60  42 NE9       29.99F
WINNER         MOCLDY    83  64  52 N9        29.91S
$$

SDZ004>011-016>023-039-040-012300-
NORTHEAST SOUTH DAKOTA

CITY           SKY/WX    TMP DP  RH WIND       PRES   REMARKS
ABERDEEN       LGT RAIN  73  66  78 SE8       29.93S
WATERTOWN      CLOUDY    70  57  63 E8        29.97S
BROOKINGS      PTSUNNY   72  59  64 SE10      29.98R
SISSETON         N/A     74  60  61 S10       29.95F
$$

SDZ017-020-022-023-036>040-048>070-012300-
SOUTHEAST SOUTH DAKOTA

CITY           SKY/WX    TMP DP  RH WIND       PRES   REMARKS
SIOUX FALLS    CLOUDY    74  63  68 SE10      29.94R
HURON          PTSUNNY   77  65  66 SE7       29.90F
MITCHELL       CLOUDY    78  67  68 SE7       29.92S
YANKTON        MOSUNNY   77  64  65 E12       29.89F
$$

ABBREVIATIONS USED IN REMARKS
   TC - TEMPERATURE IN CELSIUS
  WCI - WIND CHILL INDEX
   HX - HEAT INDEX
  VSB - VISIBILITY




USA.gov is the U.S. government's official web portal to all federal, state and local government web resources and services.